sat.trackr.live / text

‹ back to catalog

HULIANWANG DIGUI-130

NORAD 67238 · 2025-311C

PAYLOAD ACTIVE UNKNOWN

§ Identity

Operator
Country
PRC
Launch date
2025-12-25
Launch site
WSC
Launch vehicle
Mass (kg)
RCS (m²)

External: N2YO · Heavens-Above · Gunter

§ Orbital elements

Epoch: 2026-09-19T23:18:59.455008Z

Period
108.33 min
Inclination
50.0044°
Eccentricity
0.0000196
Mean motion
13.29327303 rev/d
Perigee alt
1,149.2 km
Apogee alt
1,149.4 km
Semi-major
7,527.4 km
B*
4.0916e-5
RAAN
136.0762°
Arg perigee
329.7014°
Mean anomaly
30.3846°
Rev number
3,594

§ Raw data

HULIANWANG DIGUI-1301 67238U 25311C   26262.97152147 -.00000105  00000+0  40916-4 0  99922 67238  50.0044 136.0762 0000196 329.7014  30.3846 13.29327303 35946

JSON: /api/v1/satellites/67238 · /tle

For live sub-satellite position, see the globe view (requires WebGL).

§ Visibility from observer

Set your observer location to see the next 7 days of passes ≥ 10°. The values pass through the URL so the page stays shareable.

No JS? Fill the form by hand. The geolocation button needs JavaScript.